Regional Weather Roundup
Issued by NWS New Orleans/Baton Rouge, LA

Home | Current Version | Previous Version | Graphics & Text | Print | Product List | Glossary On
Versions: 1 2 3 4 5 6 7 8 9 10 11 12 13 14 15 16 17 18 19 20 21 22 23 24 25 26 27 28 29 30 31 32 33 34 35 36 37 38 39 40 41 42 43 44 45 46 47 48 49 50
023
ASUS44 KLIX 221705
RWRLIX
NEW ORLEANS REGIONAL WEATHER ROUNDUP
NATIONAL WEATHER SERVICE NEW ORLEANS LA
1200 PM CDT WED OCT 22 2014

NOTE: "FAIR" INDICATES FEW OR NO CLOUDS BELOW 12,000 FEET WITH NO
      SIGNIFICANT WEATHER AND/OR OBSTRUCTIONS TO VISIBILITY.
      SKY/WX - SKY CONDITION AND SIGNIFICANT WEATHER.
      TMP - AIR TEMPERATURE.     DP    - DEWPOINT TEMPERATURE.
      RH  - RELATIVE HUMIDITY.   PRES  - PRESSURE.
      HI  - HEAT INDEX.          WCI   - WIND CHILL INDEX.

*  THESE STATIONS ARE NOT NWS OR FAA STATIONS AND ARE NOT UNDER
   NWS QUALITY CONTROL.

LAZ038-040-048-061>063-065>067-069-221800-
SOUTHEAST LOUISIANA

CITY           SKY/WX    TMP DP  RH WIND       PRES   REMARKS
N.O. AUDUBON     N/A     80  56  43 MISG        N/A
N.O. INTL ARPT SUNNY     76  55  48 NE15      30.10S
N.O. LAKEFRONT SUNNY     76  56  49 NE14      30.10F
N.O. DOWNTOWN*   N/A     77  54  44 NE5       30.10F
SLIDELL        SUNNY     75  53  46 NE7       30.10S
BATON ROUGE    SUNNY     77  54  44 E9        30.11F
BOOTHVILLE     SUNNY     77  63  61 NE9G17    30.08F
BELLE CHASSE   SUNNY     77  55  46 E14       30.09S
BOGALUSA*        N/A     77  48  35 E8        30.13S
NEW ROADS*       N/A     75  55  48 NE12      30.12F
GONZALES*        N/A     76  55  48 E7        30.10F
HAMMOND*       SUNNY     77  50  38 NE8       30.12F
HOUMA*         SUNNY     79  55  44 NE14      30.09S
PORT FOURCHON* SUNNY     77  59  53 NE17      30.10F

$$

MSZ070-080>082-221800-
SOUTHERN MISSISSIPPI

CITY           SKY/WX    TMP DP  RH WIND       PRES   REMARKS
MCCOMB         SUNNY     73  48  41 VRB7      30.13F
GULFPORT       SUNNY     76  50  40 NE12      30.09F
BILOXI         SUNNY     77  51  39 NE9       30.09F
PASCAGOULA     SUNNY     76  50  40 NE10      30.09F
STENNIS ARPT*  SUNNY     75  46  35 NE6       30.10F

$$

COASTAL OBSERVATIONS
LAKE AND NEARSHORE STATIONS

STATION/POSITION TIME  TEMP    WIND        PRES    WAVE
                       AIR SEA DIR/SP/G            HT/PER
                 (UTC) (F)     (DEG/KT/KT) (MB)    (FT/S)
PASCAGOULA       1700   76      50/  8/ 12 1018.4
WAVELAND YACHT   1700   72      60/  6/ 11 1018.5
GRAND ISLE       1700   75 75   70/ 12/ 16 1018.8
SOUTHWEST PASS   1700   83 83   50/ 15/ 17 1018.1
NEW CANAL        1700   72 71   50/ 12/ 14 1019.5
SHELL BEACH      1700   73 69   50/ 14/ 16 1018.9

OFFSHORE STATIONS

STATION/POSITION TIME  TEMP    WIND        PRES    WAVE
                       AIR SEA DIR/SP/G            HT/PER
                 (UTC) (F)     (DEG/KT/KT) (MB)    (FT/S)
64 S DAUPHIN ISL 1552   75 80   50/ 12/ 16 1018.4    3/ 5

$$




USA.gov is the U.S. government's official web portal to all federal, state and local government web resources and services.